Hagerstown, MD

3:29 AM EST on January 20, 2018 (GMT -0500)
Hagerstown Regional-Henson

Weather History for KHGR - October, 2011

Change the Weather History Date:

Wednesday, October 19, 2011

  Actual Average Record
Temperature  
Mean Temperature 60 °F 54 °F  
Max Temperature 65 °F 64 °F 85 °F (2016)
Min Temperature 54 °F 43 °F 30 °F (2015)
Degree Days  
Heating Degree Days 5 11  
Month to date heating degree days 141 168  
Since 1 July heating degree days 188 242  
Cooling Degree Days 0 0  
Month to date cooling degree days 0 9  
Year to date cooling degree days 1313 968  
Growing Degree Days 9 (Base 50)    
Moisture  
Dew Point 58 °F    
Average Humidity 79    
Maximum Humidity 93    
Minimum Humidity 64    
Precipitation  
Precipitation 0.01 in 0.09 in 0.28 in (2007)
Month to date precipitation 1.85 1.95  
Year to date precipitation 38.92 32.25  
Sea Level Pressure  
Sea Level Pressure 29.42 in    
Wind  
Wind Speed 9 mph (NE)    
Max Wind Speed 18 mph    
Max Gust Speed 24 mph    
Visibility 7 miles    
Events Rain    
T = Trace of Precipitation, MM = Missing Value Source: NWS Daily Summary

Daily Weather History Graph

Daily Weather History Graph

Search for Another Location

Airport or City:

Trip Planner

Search our weather history database for the weather conditions in past years. The results will help you decide how hot, cold, wet, or windy it might be!

Date:

Astronomy

Oct. 19, 2011 Rise Set
Actual Time 7:24 AM EDT 6:26 PM EDT
Civil Twilight 6:57 AM EDT 6:53 PM EDT
Nautical Twilight 6:26 AM EDT 7:24 PM EDT
Astronomical Twilight 5:55 AM EDT 7:56 PM EDT
Moon No Moon Rise 1:54 PM EDT (10/19)
Length of Visible Light 11h 55m
Length of Day
11h 01m
Waning Gibbous, 55% of the Moon is Illuminated
Oct 19
Waning Gibbous
Oct 19
Last Quarter
Oct 26
New
Nov 2
First Quarter
Nov 10
Full

Hourly Weather History & Observations

Time (EDT) Temp. Dew Point Humidity Pressure Visibility Wind Dir Wind Speed Gust Speed Precip Events Conditions
12:53 AM 61.0 °F 48.0 °F 62% 29.75 in 10.0 mi ENE 5.8 mph - N/A   Overcast
1:53 AM 59.0 °F 51.1 °F 75% 29.73 in 10.0 mi NNE 8.1 mph - 0.00 in Rain Light Rain
2:53 AM 59.0 °F 53.1 °F 81% 29.72 in 10.0 mi ENE 5.8 mph - 0.00 in Rain Light Rain
3:53 AM 57.9 °F 54.0 °F 87% 29.69 in 10.0 mi East 4.6 mph - 0.01 in Rain Light Rain
4:53 AM 55.9 °F 54.0 °F 93% 29.68 in 7.0 mi WNW 4.6 mph - 0.00 in   Overcast
5:53 AM 54.0 °F 52.0 °F 93% 29.68 in 7.0 mi NNW 4.6 mph - N/A   Scattered Clouds
7:53 AM 59.0 °F 55.9 °F 90% 29.67 in 7.0 mi NE 5.8 mph - N/A   Overcast
8:53 AM 60.1 °F 55.0 °F 83% 29.65 in 10.0 mi ENE 8.1 mph - N/A   Mostly Cloudy
9:53 AM 60.1 °F 54.0 °F 80% 29.63 in 5.0 mi NNW 9.2 mph - N/A   Haze
11:09 AM 62.6 °F 55.4 °F 77% 29.59 in 8.0 mi NE 6.9 mph - N/A   Overcast
11:27 AM 62.6 °F 55.4 °F 77% 29.58 in 10.0 mi NNE 5.8 mph - N/A   Overcast
12:23 PM 64.4 °F 55.4 °F 73% 29.53 in 10.0 mi ENE 9.2 mph 21.9 mph N/A   Overcast
12:37 PM 64.4 °F 55.4 °F 73% 29.52 in 10.0 mi East 9.2 mph - N/A   Overcast
12:53 PM 64.9 °F 57.0 °F 75% 29.53 in 10.0 mi ENE 11.5 mph - N/A   Overcast
1:53 PM 63.0 °F 59.0 °F 87% 29.48 in 7.0 mi ENE 13.8 mph 21.9 mph N/A   Overcast
2:53 PM 63.0 °F 59.0 °F 87% 29.44 in 8.0 mi ENE 16.1 mph 20.7 mph N/A   Overcast
3:53 PM 64.0 °F 59.0 °F 84% 29.42 in 10.0 mi ENE 11.5 mph - N/A   Overcast
4:51 PM 64.4 °F 59.0 °F 83% 29.36 in 10.0 mi ENE 15.0 mph - N/A   Overcast
4:53 PM 63.0 °F 59.0 °F 87% 29.39 in 10.0 mi ENE 13.8 mph - N/A   Overcast
5:14 PM 62.6 °F 60.8 °F 94% 29.36 in 6.0 mi ENE 9.2 mph - N/A   Overcast
5:53 PM 63.0 °F 60.1 °F 90% 29.36 in 10.0 mi ENE 10.4 mph - N/A   Overcast
6:53 PM 63.0 °F 61.0 °F 93% 29.34 in 7.0 mi East 6.9 mph - 0.03 in Rain Light Rain
7:17 PM 62.6 °F 60.8 °F 94% 29.32 in 2.5 mi NE 5.8 mph - 0.12 in Rain Heavy Rain
7:29 PM 62.6 °F 60.8 °F 94% 29.31 in 3.0 mi NE 4.6 mph - 0.19 in Rain Heavy Rain
7:48 PM 62.6 °F 60.8 °F 94% 29.30 in 3.0 mi ENE 4.6 mph - 0.30 in Rain Heavy Rain
7:53 PM 62.1 °F 61.0 °F 96% 29.32 in 3.0 mi NE 4.6 mph - 0.33 in Rain Heavy Rain
8:18 PM 62.6 °F 60.8 °F 94% 29.30 in 2.5 mi NNE 5.8 mph - 0.18 in Rain Heavy Rain
8:28 PM 62.6 °F 60.8 °F 94% 29.30 in 4.0 mi NE 4.6 mph - 0.20 in Rain Rain
8:40 PM 62.6 °F 60.8 °F 94% 29.30 in 2.0 mi NNE 5.8 mph - 0.29 in Rain Heavy Rain
8:53 PM 62.1 °F 61.0 °F 96% 29.30 in 7.0 mi NE 12.7 mph - 0.31 in Rain Light Rain
9:03 PM 62.6 °F 60.8 °F 94% 29.27 in 10.0 mi ENE 10.4 mph - 0.00 in   Overcast
9:38 PM 62.6 °F 60.8 °F 94% 29.27 in 10.0 mi ENE 6.9 mph - 0.00 in   Overcast
9:53 PM 62.1 °F 60.1 °F 93% 29.29 in 10.0 mi NNW 5.8 mph - 0.00 in   Overcast
10:45 PM 60.8 °F 60.8 °F 100% 29.25 in 4.0 mi Calm Calm - 0.00 in   Overcast
10:53 PM 61.0 °F 60.1 °F 97% 29.27 in 3.0 mi Calm Calm - 0.00 in Rain Light Rain
11:11 PM 60.8 °F 60.8 °F 100% 29.24 in 3.0 mi WNW 5.8 mph - 0.00 in   Overcast
11:17 PM 60.8 °F 60.8 °F 100% 29.25 in 2.5 mi West 8.1 mph - 0.00 in   Overcast
11:26 PM 60.8 °F 60.8 °F 100% 29.25 in 1.2 mi WNW 6.9 mph - 0.01 in Rain Light Rain
11:40 PM 60.8 °F 60.8 °F 100% 29.25 in 2.0 mi NW 4.6 mph - 0.01 in Rain Light Rain
11:49 PM 60.8 °F 60.8 °F 100% 29.25 in 3.0 mi WSW 3.5 mph - 0.01 in Rain Light Rain
11:53 PM 60.1 °F 60.1 °F 100% 29.27 in 3.0 mi West 6.9 mph - 0.02 in Rain Light Rain